Location: Prairie Dale
(45.6972°N, 104.5033°W)
Time: 14:31:54
(UTC+00:00)

Envisat - Pass Details

Date: 24 January 2022
Orbit: 764 x 765 km, 98.2° (Epoch: 15 May)

Event Time Altitude Azimuth Distance (km) Brightness Sun altitude
Rises 13:53:01 0° 354° (N) 3,242 6.0 -6.4°
Reaches altitude 10° 13:57:23 10° 318° (NW) 2,310 4.9 -5.7°
Maximum altitude 13:58:29 11° 306° (NW) 2,260 4.8 -5.5°
Drops below altitude 10° 13:59:36 10° 293° (WNW) 2,307 4.8 -5.3°
Sets 14:03:58 0° 257° (WSW) 3,227 5.7 -4.6°
